Location: Newark
(34.9500°N, 139.9667°E)
Time: 07:37:58
(UTC+00:00)

Vanguard 2 Rocket - Pass Details

Date: 14 December 2019
Orbit: 554 x 3326 km, 32.9° (Epoch: 21 January)

Event Time Altitude Azimuth Distance (km) Brightness Sun altitude
Rises 07:46:18 0° 247° (WSW) 7,186 14.6 -3.9°
Reaches altitude 10° 07:51:30 10° 246° (WSW) 5,966 13.0 -4.9°
Maximum altitude 08:08:50 72° 167° (SSE) 2,272 8.9 -8.1°
Drops below altitude 10° 08:18:49 10° 85° (E) 3,641 9.4 -10.0°
Enters shadow 08:18:51 10° 85° (E) 3,651 9.4 -10.0°
Sets 08:21:13 0° 83° (E) 4,338 - -10.5°
